Torna al catalogo

STARLINK-35673

AttivoComunicazioniVLEO
NORAD 66492·PAYLOAD·🇺🇸 United States

Lanciato Nov 15, 2025 da Cape Canaveral Space Force Station

Loading…

Prossimi Passaggi (prossime 24 ore)

TLE

AggiornatoSource: CelesTrak SupGP

Epoca: Sep 15, 2026, 03:08 UTC

1 66492C 25263H   26258.13104167  .00037275  00000+0  13499-2 0  2580
2 66492  43.0037   0.7922 0001839 265.8419  35.7099 15.27564294    11

Traccia STARLINK-35673 in tempo reale con AllMySat

Download on the App Store